Time,TemperatureF,DewpointF,PressureIn,WindDirection,WindDirectionDegrees,WindSpeedMPH,WindSpeedGustMPH,Humidity,HourlyPrecipIn,Conditions,Clouds,dailyrainin,SoftwareType,DateUTC
2013-06-06 00:03:00,61.9,59.2,29.94,South,180,0.0,0.0,91,0.00,,,0.19,meteohub,2013-06-06 05:03:00,
2013-06-06 00:08:00,61.9,59.2,29.94,NW,315,1.0,0.0,91,0.00,,,0.00,meteohub,2013-06-06 05:08:00,
2013-06-06 00:13:00,62.1,59.4,29.94,WSW,248,0.0,0.0,91,0.00,,,0.00,meteohub,2013-06-06 05:13:00,
2013-06-06 00:18:00,62.1,59.4,29.94,SSW,203,0.0,1.0,91,0.00,,,0.00,meteohub,2013-06-06 05:18:00,
2013-06-06 00:23:00,62.1,59.4,29.94,South,180,0.0,1.0,91,0.00,,,0.00,meteohub,2013-06-06 05:23:00,
2013-06-06 00:28:00,61.9,59.2,29.95,South,180,0.0,0.0,91,0.00,,,0.00,meteohub,2013-06-06 05:28:00,
2013-06-06 00:33:00,61.7,59.0,29.95,SE,135,0.0,0.0,91,0.00,,,0.00,meteohub,2013-06-06 05:33:00,
2013-06-06 00:38:00,61.5,58.8,29.93,SE,135,0.0,0.0,91,0.00,,,0.00,meteohub,2013-06-06 05:38:00,
2013-06-06 00:43:00,61.5,58.8,29.93,SE,135,0.0,0.0,91,0.00,,,0.00,meteohub,2013-06-06 05:43:00,
2013-06-06 00:48:00,61.3,58.6,29.93,SE,135,0.0,0.0,91,0.00,,,0.00,meteohub,2013-06-06 05:48:00,
2013-06-06 00:53:00,61.3,58.6,29.93,SSE,158,0.0,0.0,91,0.00,,,0.00,meteohub,2013-06-06 05:53:00,
2013-06-06 00:58:00,61.0,58.3,29.93,SW,225,0.0,0.0,91,0.00,,,0.00,meteohub,2013-06-06 05:58:00,
2013-06-06 01:03:00,60.8,58.1,29.93,South,180,0.0,0.0,91,0.00,,,0.00,meteohub,2013-06-06 06:03:00,
2013-06-06 01:08:00,60.6,57.9,29.94,SSE,158,0.0,0.0,91,0.00,,,0.00,meteohub,2013-06-06 06:08:00,
2013-06-06 01:13:00,60.3,57.6,29.94,South,180,0.0,0.0,91,0.00,,,0.00,meteohub,2013-06-06 06:13:00,
2013-06-06 01:18:00,60.1,57.4,29.92,SSE,158,0.0,0.0,91,0.00,,,0.00,meteohub,2013-06-06 06:18:00,
2013-06-06 01:23:00,60.1,57.4,29.92,South,180,0.0,0.0,91,0.00,,,0.00,meteohub,2013-06-06 06:23:00,
2013-06-06 01:28:00,59.9,57.2,29.92,SSE,158,0.0,0.0,91,0.00,,,0.00,meteohub,2013-06-06 06:28:00,
2013-06-06 01:33:00,59.9,57.2,29.92,SSE,158,0.0,0.0,91,0.00,,,0.00,meteohub,2013-06-06 06:33:00,
2013-06-06 01:38:00,59.5,56.8,29.92,SSE,158,0.0,0.0,91,0.00,,,0.00,meteohub,2013-06-06 06:38:00,
2013-06-06 01:43:00,59.4,56.7,29.92,SSE,158,0.0,0.0,91,0.00,,,0.00,meteohub,2013-06-06 06:43:00,
2013-06-06 01:48:00,59.5,56.8,29.92,SSE,158,0.0,0.0,91,0.00,,,0.00,meteohub,2013-06-06 06:48:00,
2013-06-06 01:53:00,59.2,56.5,29.92,SSW,203,0.0,0.0,91,0.00,,,0.00,meteohub,2013-06-06 06:53:00,
2013-06-06 01:58:00,59.0,56.3,29.92,SW,225,0.0,0.0,91,0.00,,,0.00,meteohub,2013-06-06 06:58:00,
2013-06-06 02:03:00,58.8,56.1,29.92,SW,225,0.0,0.0,91,0.00,,,0.00,meteohub,2013-06-06 07:03:00,
2013-06-06 02:08:00,58.8,56.1,29.92,SW,225,0.0,0.0,91,0.00,,,0.00,meteohub,2013-06-06 07:08:00,
2013-06-06 02:13:00,58.6,55.9,29.92,SW,225,0.0,0.0,91,0.00,,,0.00,meteohub,2013-06-06 07:13:00,
2013-06-06 02:18:00,58.5,55.8,29.92,South,180,0.0,0.0,91,0.00,,,0.00,meteohub,2013-06-06 07:18:00,
2013-06-06 02:24:00,58.3,55.6,29.92,South,180,0.0,0.0,91,0.00,,,0.00,meteohub,2013-06-06 07:24:00,
2013-06-06 02:29:00,58.1,55.4,29.92,South,180,0.0,0.0,91,0.00,,,0.00,meteohub,2013-06-06 07:29:00,
2013-06-06 02:34:00,57.9,55.2,29.92,South,180,0.0,0.0,91,0.00,,,0.00,meteohub,2013-06-06 07:34:00,
2013-06-06 02:39:00,57.9,55.2,29.92,South,180,0.0,0.0,91,0.00,,,0.00,meteohub,2013-06-06 07:39:00,
2013-06-06 02:44:00,58.1,55.8,29.92,South,180,0.0,0.0,92,0.00,,,0.00,meteohub,2013-06-06 07:44:00,
2013-06-06 02:49:00,57.9,55.6,29.92,SSW,203,0.0,0.0,92,0.00,,,0.00,meteohub,2013-06-06 07:49:00,
2013-06-06 02:54:00,57.9,55.6,29.92,WSW,248,0.0,0.0,92,0.00,,,0.00,meteohub,2013-06-06 07:54:00,
2013-06-06 02:59:00,58.1,55.8,29.92,WSW,248,0.0,0.0,92,0.00,,,0.00,meteohub,2013-06-06 07:59:00,
2013-06-06 03:04:00,57.9,55.6,29.92,West,270,0.0,0.0,92,0.00,,,0.00,meteohub,2013-06-06 08:04:00,
2013-06-06 03:09:00,58.1,55.8,29.92,South,180,0.0,0.0,92,0.00,,,0.00,meteohub,2013-06-06 08:09:00,
2013-06-06 03:14:00,58.1,55.8,29.92,South,180,0.0,0.0,92,0.00,,,0.00,meteohub,2013-06-06 08:14:00,
2013-06-06 03:19:00,58.1,55.8,29.90,SSW,203,0.0,0.0,92,0.00,,,0.00,meteohub,2013-06-06 08:19:00,
2013-06-06 03:24:00,58.5,56.1,29.90,WSW,248,0.0,0.0,92,0.00,,,0.00,meteohub,2013-06-06 08:24:00,
2013-06-06 03:29:00,58.5,56.1,29.90,WSW,248,2.0,0.0,92,0.00,,,0.00,meteohub,2013-06-06 08:29:00,
2013-06-06 03:34:00,58.5,56.1,29.90,WSW,248,0.0,0.0,92,0.00,,,0.00,meteohub,2013-06-06 08:34:00,
2013-06-06 03:39:00,58.5,56.1,29.91,West,270,1.0,2.0,92,0.00,,,0.00,meteohub,2013-06-06 08:39:00,
2013-06-06 03:44:00,58.3,55.9,29.91,WSW,248,0.0,2.0,92,0.00,,,0.00,meteohub,2013-06-06 08:44:00,
2013-06-06 03:49:00,58.1,55.8,29.91,WSW,248,0.0,2.0,92,0.00,,,0.00,meteohub,2013-06-06 08:49:00,
2013-06-06 03:54:00,57.9,55.6,29.91,West,270,0.0,2.0,92,0.00,,,0.00,meteohub,2013-06-06 08:54:00,
2013-06-06 03:59:00,58.1,55.8,29.92,WSW,248,0.0,2.0,92,0.00,,,0.00,meteohub,2013-06-06 08:59:00,
2013-06-06 04:04:00,57.9,55.6,29.92,West,270,0.0,1.0,92,0.00,,,0.00,meteohub,2013-06-06 09:04:00,
2013-06-06 04:09:00,58.1,55.8,29.92,SSW,203,0.0,1.0,92,0.00,,,0.00,meteohub,2013-06-06 09:09:00,
2013-06-06 04:14:00,57.9,55.6,29.92,WNW,293,0.0,1.0,92,0.00,,,0.00,meteohub,2013-06-06 09:14:00,
2013-06-06 04:19:00,58.1,55.8,29.93,SW,225,0.0,1.0,92,0.00,,,0.00,meteohub,2013-06-06 09:19:00,
2013-06-06 04:24:00,58.1,55.8,29.93,SW,225,0.0,0.0,92,0.00,,,0.00,meteohub,2013-06-06 09:24:00,
2013-06-06 04:29:00,58.1,55.8,29.93,South,180,0.0,1.0,92,0.00,,,0.00,meteohub,2013-06-06 09:29:00,
2013-06-06 04:34:00,57.9,55.6,29.93,South,180,0.0,1.0,92,0.00,,,0.00,meteohub,2013-06-06 09:34:00,
2013-06-06 04:39:00,58.1,55.8,29.93,South,180,0.0,1.0,92,0.00,,,0.00,meteohub,2013-06-06 09:39:00,
2013-06-06 04:44:00,57.9,55.6,29.93,South,180,0.0,0.0,92,0.00,,,0.00,meteohub,2013-06-06 09:44:00,
2013-06-06 04:49:00,57.7,55.4,29.93,South,180,0.0,0.0,92,0.00,,,0.00,meteohub,2013-06-06 09:49:00,
2013-06-06 04:54:00,57.7,55.4,29.93,West,270,0.0,0.0,92,0.00,,,0.00,meteohub,2013-06-06 09:54:00,
2013-06-06 04:59:00,57.7,55.4,29.92,South,180,0.0,0.0,92,0.00,,,0.00,meteohub,2013-06-06 09:59:00,
2013-06-06 05:04:00,57.7,55.4,29.92,SW,225,0.0,0.0,92,0.00,,,0.00,meteohub,2013-06-06 10:04:00,
2013-06-06 05:09:00,57.7,55.8,29.92,South,180,0.0,0.0,93,0.00,,,0.00,meteohub,2013-06-06 10:09:00,
2013-06-06 05:14:00,57.7,55.8,29.92,West,270,0.0,0.0,93,0.00,,,0.00,meteohub,2013-06-06 10:14:00,
2013-06-06 05:19:00,57.9,55.9,29.92,South,180,0.0,0.0,93,0.00,,,0.00,meteohub,2013-06-06 10:19:00,
2013-06-06 05:24:00,58.1,56.1,29.92,South,180,0.0,0.0,93,0.00,,,0.00,meteohub,2013-06-06 10:24:00,
2013-06-06 05:29:00,58.1,56.1,29.92,South,180,0.0,0.0,93,0.00,,,0.00,meteohub,2013-06-06 10:29:00,
2013-06-06 05:34:00,57.9,55.9,29.92,South,180,0.0,0.0,93,0.00,,,0.00,meteohub,2013-06-06 10:34:00,
2013-06-06 05:39:00,58.1,56.1,29.92,SSE,158,0.0,0.0,93,0.00,,,0.00,meteohub,2013-06-06 10:39:00,
2013-06-06 05:44:00,58.1,56.1,29.92,SSE,158,0.0,0.0,93,0.00,,,0.00,meteohub,2013-06-06 10:44:00,
2013-06-06 05:49:00,58.1,56.1,29.92,SSE,158,0.0,0.0,93,0.00,,,0.00,meteohub,2013-06-06 10:49:00,
2013-06-06 05:54:00,58.1,56.1,29.92,SSE,158,0.0,0.0,93,0.00,,,0.00,meteohub,2013-06-06 10:54:00,
2013-06-06 05:59:00,58.5,56.5,29.92,West,270,0.0,0.0,93,0.00,,,0.00,meteohub,2013-06-06 10:59:00,
2013-06-06 06:04:00,58.5,56.5,29.92,WSW,248,0.0,0.0,93,0.00,,,0.00,meteohub,2013-06-06 11:04:00,
2013-06-06 06:09:00,58.5,56.5,29.92,SW,225,0.0,0.0,93,0.00,,,0.00,meteohub,2013-06-06 11:09:00,
2013-06-06 06:14:00,58.6,56.7,29.92,SSW,203,0.0,0.0,93,0.00,,,0.00,meteohub,2013-06-06 11:14:00,
2013-06-06 06:19:00,58.8,56.8,29.91,SSW,203,0.0,0.0,93,0.00,,,0.00,meteohub,2013-06-06 11:19:00,
2013-06-06 06:24:00,58.8,56.8,29.91,West,270,0.0,0.0,93,0.00,,,0.00,meteohub,2013-06-06 11:24:00,
2013-06-06 06:29:00,58.8,56.8,29.91,West,270,0.0,0.0,93,0.00,,,0.00,meteohub,2013-06-06 11:29:00,
2013-06-06 06:34:00,59.0,57.0,29.91,West,270,0.0,0.0,93,0.00,,,0.00,meteohub,2013-06-06 11:34:00,
2013-06-06 06:39:00,59.2,57.2,29.92,SSW,203,0.0,0.0,93,0.00,,,0.00,meteohub,2013-06-06 11:39:00,
2013-06-06 06:44:00,59.4,57.4,29.92,SSW,203,0.0,0.0,93,0.00,,,0.00,meteohub,2013-06-06 11:44:00,
2013-06-06 06:49:00,59.4,57.4,29.92,ENE,68,0.0,0.0,93,0.00,,,0.00,meteohub,2013-06-06 11:49:00,
2013-06-06 06:54:00,59.9,58.1,29.92,SE,135,0.0,0.0,94,0.00,,,0.00,meteohub,2013-06-06 11:54:00,
2013-06-06 06:59:00,59.7,57.9,29.92,NW,315,0.0,0.0,94,0.00,,,0.00,meteohub,2013-06-06 11:59:00,
2013-06-06 07:04:00,60.1,58.3,29.92,SW,225,0.0,0.0,94,0.00,,,0.00,meteohub,2013-06-06 12:04:00,
2013-06-06 07:09:00,60.3,58.3,29.92,ESE,113,0.0,0.0,93,0.00,,,0.00,meteohub,2013-06-06 12:09:00,
2013-06-06 07:14:00,60.3,58.3,29.92,South,180,0.0,0.0,93,0.00,,,0.00,meteohub,2013-06-06 12:14:00,
2013-06-06 07:19:00,60.3,58.3,29.92,NW,315,0.0,0.0,93,0.00,,,0.00,meteohub,2013-06-06 12:19:00,
2013-06-06 07:24:00,60.4,58.5,29.92,WSW,248,0.0,0.0,93,0.00,,,0.00,meteohub,2013-06-06 12:24:00,
2013-06-06 07:29:00,60.6,58.6,29.92,NW,315,0.0,0.0,93,0.00,,,0.00,meteohub,2013-06-06 12:29:00,
2013-06-06 07:34:00,60.6,58.6,29.92,SW,225,0.0,0.0,93,0.00,,,0.00,meteohub,2013-06-06 12:34:00,
2013-06-06 07:39:00,60.6,58.6,29.92,SE,135,0.0,0.0,93,0.00,,,0.00,meteohub,2013-06-06 12:39:00,
2013-06-06 07:44:00,60.6,58.6,29.92,ESE,113,0.0,1.0,93,0.00,,,0.00,meteohub,2013-06-06 12:44:00,
2013-06-06 07:49:00,60.6,58.6,29.92,ENE,68,0.0,1.0,93,0.00,,,0.00,meteohub,2013-06-06 12:49:00,
2013-06-06 07:54:00,60.4,58.5,29.93,ENE,68,0.0,1.0,93,0.00,,,0.00,meteohub,2013-06-06 12:54:00,
2013-06-06 07:59:00,60.6,58.6,29.93,SW,225,0.0,0.0,93,0.00,,,0.00,meteohub,2013-06-06 12:59:00,
2013-06-06 08:04:00,60.8,58.8,29.93,East,90,0.0,0.0,93,0.00,,,0.00,meteohub,2013-06-06 13:04:00,
2013-06-06 08:09:00,61.0,59.2,29.93,SE,135,0.0,0.0,94,0.00,,,0.00,meteohub,2013-06-06 13:09:00,
2013-06-06 08:15:00,60.8,58.8,29.93,ESE,113,0.0,0.0,93,0.00,,,0.00,meteohub,2013-06-06 13:15:00,
2013-06-06 08:20:00,61.0,59.2,29.93,WSW,248,0.0,0.0,94,0.00,,,0.00,meteohub,2013-06-06 13:20:00,
2013-06-06 08:25:00,61.3,59.5,29.93,ESE,113,0.0,0.0,94,0.00,,,0.00,meteohub,2013-06-06 13:25:00,
2013-06-06 08:30:00,61.3,59.5,29.93,ENE,68,0.0,0.0,94,0.00,,,0.00,meteohub,2013-06-06 13:30:00,
2013-06-06 08:35:00,61.2,59.4,29.93,ESE,113,0.0,0.0,94,0.00,,,0.00,meteohub,2013-06-06 13:35:00,
2013-06-06 08:40:00,61.3,59.5,29.91,East,90,0.0,0.0,94,0.00,,,0.00,meteohub,2013-06-06 13:40:00,
2013-06-06 08:45:00,61.5,59.7,29.91,SE,135,0.0,0.0,94,0.00,,,0.00,meteohub,2013-06-06 13:45:00,
2013-06-06 08:50:00,61.5,59.7,29.91,ENE,68,0.0,0.0,94,0.00,,,0.00,meteohub,2013-06-06 13:50:00,
2013-06-06 08:55:00,61.5,59.7,29.91,ENE,68,0.0,0.0,94,0.00,,,0.00,meteohub,2013-06-06 13:55:00,
2013-06-06 09:00:00,61.9,60.1,29.92,SW,225,0.0,0.0,94,0.00,,,0.00,meteohub,2013-06-06 14:00:00,
2013-06-06 09:05:00,62.1,60.3,29.92,SE,135,0.0,0.0,94,0.00,,,0.00,meteohub,2013-06-06 14:05:00,
2013-06-06 09:10:00,62.1,60.3,29.92,ENE,68,0.0,0.0,94,0.00,,,0.00,meteohub,2013-06-06 14:10:00,
2013-06-06 09:15:00,62.1,60.3,29.92,NE,45,0.0,0.0,94,0.00,,,0.00,meteohub,2013-06-06 14:15:00,
2013-06-06 09:20:00,62.2,60.4,29.92,ENE,68,0.0,0.0,94,0.00,,,0.00,meteohub,2013-06-06 14:20:00,
2013-06-06 09:25:00,62.4,60.6,29.92,ESE,113,1.0,0.0,94,0.00,,,0.00,meteohub,2013-06-06 14:25:00,
2013-06-06 09:30:00,62.4,60.6,29.92,ESE,113,0.0,1.0,94,0.00,,,0.00,meteohub,2013-06-06 14:30:00,
2013-06-06 09:35:00,62.6,60.8,29.92,ENE,68,0.0,1.0,94,0.00,,,0.00,meteohub,2013-06-06 14:35:00,
2013-06-06 09:40:00,62.4,60.6,29.90,SE,135,0.0,1.0,94,0.00,,,0.00,meteohub,2013-06-06 14:40:00,
2013-06-06 09:45:00,62.8,61.0,29.90,ESE,113,0.0,0.0,94,0.00,,,0.00,meteohub,2013-06-06 14:45:00,
2013-06-06 09:50:00,63.1,61.3,29.90,WSW,248,0.0,0.0,94,0.00,,,0.00,meteohub,2013-06-06 14:50:00,
2013-06-06 09:55:00,63.1,61.3,29.90,WNW,293,0.0,0.0,94,0.00,,,0.00,meteohub,2013-06-06 14:55:00,
2013-06-06 10:00:00,63.3,61.5,29.90,WNW,293,1.0,3.0,94,0.00,,,0.00,meteohub,2013-06-06 15:00:00,
2013-06-06 10:05:00,63.3,61.5,29.90,WSW,248,0.0,3.0,94,0.00,,,0.00,meteohub,2013-06-06 15:05:00,
2013-06-06 10:10:00,63.3,61.5,29.90,West,270,1.0,3.0,94,0.00,,,0.00,meteohub,2013-06-06 15:10:00,
2013-06-06 10:15:00,63.7,61.9,29.91,WSW,248,2.0,2.0,94,0.00,,,0.00,meteohub,2013-06-06 15:15:00,
2013-06-06 10:20:00,63.9,62.1,29.91,West,270,0.0,2.0,94,0.00,,,0.00,meteohub,2013-06-06 15:20:00,
2013-06-06 10:25:00,63.9,62.1,29.91,ESE,113,0.0,2.0,94,0.00,,,0.00,meteohub,2013-06-06 15:25:00,
2013-06-06 10:30:00,63.9,62.1,29.91,SW,225,0.0,2.0,94,0.00,,,0.00,meteohub,2013-06-06 15:30:00,
2013-06-06 10:35:00,63.9,62.1,29.91,ESE,113,0.0,0.0,94,0.00,,,0.00,meteohub,2013-06-06 15:35:00,
2013-06-06 10:40:00,63.9,62.1,29.91,East,90,0.0,0.0,94,0.00,,,0.00,meteohub,2013-06-06 15:40:00,
2013-06-06 10:45:00,64.2,62.4,29.91,ENE,68,0.0,0.0,94,0.00,,,0.00,meteohub,2013-06-06 15:45:00,
2013-06-06 10:50:00,64.2,62.4,29.91,WSW,248,0.0,0.0,94,0.00,,,0.00,meteohub,2013-06-06 15:50:00,
2013-06-06 10:55:00,64.4,62.6,29.92,WNW,293,0.0,0.0,94,0.00,,,0.00,meteohub,2013-06-06 15:55:00,
2013-06-06 11:00:00,64.6,62.8,29.92,SE,135,0.0,0.0,94,0.00,,,0.00,meteohub,2013-06-06 16:00:00,
2013-06-06 11:05:00,64.9,63.1,29.92,SE,135,0.0,0.0,94,0.00,,,0.00,meteohub,2013-06-06 16:05:00,
2013-06-06 11:10:00,64.9,63.1,29.92,SSE,158,0.0,0.0,94,0.00,,,0.00,meteohub,2013-06-06 16:10:00,
2013-06-06 11:15:00,65.1,63.3,29.92,South,180,0.0,0.0,94,0.00,,,0.00,meteohub,2013-06-06 16:15:00,
2013-06-06 11:20:00,65.1,63.3,29.92,ENE,68,0.0,0.0,94,0.00,,,0.00,meteohub,2013-06-06 16:20:00,
2013-06-06 11:25:00,65.3,63.5,29.92,SE,135,0.0,0.0,94,0.00,,,0.00,meteohub,2013-06-06 16:25:00,
2013-06-06 11:30:00,65.3,63.5,29.92,West,270,0.0,0.0,94,0.00,,,0.00,meteohub,2013-06-06 16:30:00,
2013-06-06 11:35:00,65.7,63.9,29.91,NW,315,0.0,1.0,94,0.00,,,0.00,meteohub,2013-06-06 16:35:00,
2013-06-06 11:40:00,65.7,63.9,29.91,West,270,0.0,1.0,94,0.00,,,0.00,meteohub,2013-06-06 16:40:00,
2013-06-06 11:45:00,65.7,63.9,29.91,WSW,248,0.0,1.0,94,0.00,,,0.00,meteohub,2013-06-06 16:45:00,
2013-06-06 11:50:00,65.5,63.7,29.91,SSE,158,0.0,0.0,94,0.00,,,0.00,meteohub,2013-06-06 16:50:00,
2013-06-06 11:55:00,65.8,64.0,29.91,SSW,203,0.0,0.0,94,0.00,,,0.00,meteohub,2013-06-06 16:55:00,
2013-06-06 12:01:00,65.5,63.3,29.91,SW,225,0.0,0.0,93,0.00,,,0.00,meteohub,2013-06-06 17:01:00,
2013-06-06 12:06:00,65.7,63.5,29.91,ESE,113,0.0,0.0,93,0.00,,,0.00,meteohub,2013-06-06 17:06:00,
2013-06-06 12:10:00,65.8,63.7,29.91,NNE,23,0.0,0.0,93,0.00,,,0.00,meteohub,2013-06-06 17:10:00,
2013-06-06 12:16:00,65.8,63.7,29.91,WSW,248,0.0,0.0,93,0.00,,,0.00,meteohub,2013-06-06 17:16:00,
2013-06-06 12:21:00,66.0,64.2,29.91,South,180,0.0,0.0,94,0.00,,,0.00,meteohub,2013-06-06 17:21:00,
2013-06-06 12:26:00,66.0,64.2,29.91,South,180,0.0,0.0,94,0.00,,,0.00,meteohub,2013-06-06 17:26:00,
2013-06-06 12:31:00,66.0,64.2,29.91,SE,135,0.0,0.0,94,0.00,,,0.00,meteohub,2013-06-06 17:31:00,
2013-06-06 12:36:00,66.4,64.6,29.91,West,270,0.0,0.0,94,0.00,,,0.00,meteohub,2013-06-06 17:36:00,
2013-06-06 12:41:00,66.2,64.4,29.91,NW,315,0.0,0.0,94,0.00,,,0.00,meteohub,2013-06-06 17:41:00,
2013-06-06 12:46:00,66.4,64.6,29.91,South,180,0.0,0.0,94,0.00,,,0.00,meteohub,2013-06-06 17:46:00,
2013-06-06 12:51:00,66.6,64.8,29.91,WNW,293,0.0,0.0,94,0.00,,,0.00,meteohub,2013-06-06 17:51:00,
2013-06-06 12:56:00,66.7,64.9,29.91,West,270,3.0,0.0,94,0.00,,,0.00,meteohub,2013-06-06 17:56:00,
2013-06-06 13:01:00,67.1,64.9,29.91,WSW,248,0.0,3.0,93,0.00,,,0.00,meteohub,2013-06-06 18:01:00,
2013-06-06 13:07:00,67.1,64.9,29.91,SE,135,0.0,3.0,93,0.00,,,0.00,meteohub,2013-06-06 18:07:00,
2013-06-06 13:12:00,67.1,64.9,29.91,NE,45,2.0,3.0,93,0.00,,,0.00,meteohub,2013-06-06 18:12:00,
2013-06-06 13:17:00,66.9,64.8,29.92,ESE,113,0.0,2.0,93,0.00,,,0.00,meteohub,2013-06-06 18:17:00,
2013-06-06 13:22:00,66.6,64.2,29.92,SE,135,0.0,2.0,92,0.00,,,0.00,meteohub,2013-06-06 18:22:00,
2013-06-06 13:27:00,66.6,64.2,29.92,ESE,113,0.0,2.0,92,0.00,,,0.00,meteohub,2013-06-06 18:27:00,
2013-06-06 13:32:00,66.6,64.2,29.92,NE,45,0.0,0.0,92,0.00,,,0.00,meteohub,2013-06-06 18:32:00,
2013-06-06 13:37:00,66.6,64.2,29.92,ESE,113,0.0,0.0,92,0.00,,,0.00,meteohub,2013-06-06 18:37:00,
2013-06-06 13:42:00,66.7,64.4,29.92,ENE,68,0.0,0.0,92,0.00,,,0.00,meteohub,2013-06-06 18:42:00,
2013-06-06 13:47:00,66.7,64.4,29.92,ENE,68,1.0,0.0,92,0.00,,,0.00,meteohub,2013-06-06 18:47:00,
2013-06-06 13:52:00,67.1,64.8,29.92,ESE,113,0.0,1.0,92,0.00,,,0.00,meteohub,2013-06-06 18:52:00,
2013-06-06 13:57:00,67.3,64.9,29.92,ENE,68,0.0,1.0,92,0.00,,,0.00,meteohub,2013-06-06 18:57:00,
2013-06-06 14:02:00,67.6,65.3,29.91,ENE,68,0.0,1.0,92,0.00,,,0.00,meteohub,2013-06-06 19:02:00,
2013-06-06 14:07:00,68.0,65.7,29.91,ESE,113,0.0,1.0,92,0.00,,,0.00,meteohub,2013-06-06 19:07:00,
2013-06-06 14:12:00,68.5,65.8,29.91,SSW,203,0.0,1.0,91,0.00,,,0.00,meteohub,2013-06-06 19:12:00,
2013-06-06 14:17:00,68.9,66.2,29.90,NW,315,1.0,0.0,91,0.00,,,0.00,meteohub,2013-06-06 19:17:00,
2013-06-06 14:22:00,69.1,66.0,29.90,West,270,0.0,1.0,90,0.00,,,0.00,meteohub,2013-06-06 19:22:00,
2013-06-06 14:27:00,69.6,66.6,29.90,SSE,158,0.0,1.0,90,0.00,,,0.00,meteohub,2013-06-06 19:27:00,
2013-06-06 14:32:00,70.0,66.9,29.90,SSW,203,0.0,5.0,90,0.00,,,0.00,meteohub,2013-06-06 19:32:00,
2013-06-06 14:34:00,69.8,66.4,29.90,SSE,158,0.0,5.0,89,0.00,,,0.00,meteohub,2013-06-06 19:34:00,
2013-06-06 14:39:00,69.8,66.0,29.89,NNE,23,0.0,5.0,88,0.00,,,0.00,meteohub,2013-06-06 19:39:00,
2013-06-06 14:44:00,70.2,66.0,29.89,WSW,248,0.0,5.0,87,0.00,,,0.00,meteohub,2013-06-06 19:44:00,
2013-06-06 14:49:00,70.2,66.0,29.89,NW,315,2.0,2.0,87,0.00,,,0.00,meteohub,2013-06-06 19:49:00,
2013-06-06 14:54:00,70.2,65.8,29.89,West,270,0.0,2.0,86,0.00,,,0.00,meteohub,2013-06-06 19:54:00,
2013-06-06 14:59:00,70.5,65.8,29.88,South,180,0.0,3.0,85,0.00,,,0.00,meteohub,2013-06-06 19:59:00,
2013-06-06 15:04:00,70.7,66.0,29.88,SE,135,0.0,3.0,85,0.00,,,0.00,meteohub,2013-06-06 20:04:00,
2013-06-06 15:09:00,71.1,66.4,29.88,South,180,1.0,3.0,85,0.00,,,0.00,meteohub,2013-06-06 20:09:00,
2013-06-06 15:14:00,71.1,66.0,29.88,SE,135,0.0,3.0,84,0.00,,,0.00,meteohub,2013-06-06 20:14:00,
2013-06-06 15:19:00,70.9,65.5,29.88,SE,135,1.0,1.0,83,0.00,,,0.00,meteohub,2013-06-06 20:19:00,
2013-06-06 15:24:00,71.1,65.7,29.88,SE,135,0.0,2.0,83,0.00,,,0.00,meteohub,2013-06-06 20:24:00,
2013-06-06 15:29:00,71.1,65.7,29.88,ESE,113,0.0,2.0,83,0.00,,,0.00,meteohub,2013-06-06 20:29:00,
2013-06-06 15:34:00,70.9,65.1,29.88,SE,135,1.0,2.0,82,0.00,,,0.00,meteohub,2013-06-06 20:34:00,
2013-06-06 15:39:00,71.1,65.3,29.89,ESE,113,0.0,2.0,82,0.00,,,0.00,meteohub,2013-06-06 20:39:00,
2013-06-06 15:44:00,70.9,64.8,29.89,WSW,248,0.0,2.0,81,0.00,,,0.00,meteohub,2013-06-06 20:44:00,
2013-06-06 15:49:00,70.9,65.1,29.89,WSW,248,0.0,2.0,82,0.00,,,0.00,meteohub,2013-06-06 20:49:00,
2013-06-06 15:54:00,70.9,65.1,29.89,WSW,248,0.0,0.0,82,0.00,,,0.00,meteohub,2013-06-06 20:54:00,
2013-06-06 15:59:00,70.9,64.8,29.88,NW,315,0.0,1.0,81,0.00,,,0.00,meteohub,2013-06-06 20:59:00,
2013-06-06 16:04:00,71.2,65.1,29.88,WSW,248,3.0,4.0,81,0.00,,,0.00,meteohub,2013-06-06 21:04:00,
2013-06-06 16:09:00,71.2,64.4,29.88,SE,135,2.0,4.0,79,0.00,,,0.00,meteohub,2013-06-06 21:09:00,
2013-06-06 16:14:00,71.2,64.4,29.88,West,270,0.0,4.0,79,0.00,,,0.00,meteohub,2013-06-06 21:14:00,
2013-06-06 16:19:00,71.4,64.6,29.88,South,180,0.0,4.0,79,0.00,,,0.00,meteohub,2013-06-06 21:19:00,
2013-06-06 16:24:00,71.4,64.6,29.88,SW,225,0.0,3.0,79,0.00,,,0.00,meteohub,2013-06-06 21:24:00,
2013-06-06 16:29:00,71.1,64.2,29.88,West,270,0.0,0.0,79,0.00,,,0.00,meteohub,2013-06-06 21:29:00,
2013-06-06 16:34:00,70.9,64.0,29.88,South,180,0.0,1.0,79,0.00,,,0.00,meteohub,2013-06-06 21:34:00,
2013-06-06 16:39:00,70.7,63.5,29.88,West,270,0.0,1.0,78,0.00,,,0.00,meteohub,2013-06-06 21:39:00,
2013-06-06 16:44:00,70.7,63.5,29.88,SSE,158,0.0,5.0,78,0.00,,,0.00,meteohub,2013-06-06 21:44:00,
2013-06-06 16:49:00,70.7,63.9,29.88,NW,315,0.0,5.0,79,0.00,,,0.00,meteohub,2013-06-06 21:49:00,
2013-06-06 16:54:00,70.3,63.5,29.88,East,90,0.0,5.0,79,0.00,,,0.00,meteohub,2013-06-06 21:54:00,
2013-06-06 16:59:00,70.3,63.5,29.88,SE,135,0.0,0.0,79,0.00,,,0.00,meteohub,2013-06-06 21:59:00,
2013-06-06 17:04:00,70.3,63.5,29.88,SSE,158,0.0,2.0,79,0.00,,,0.00,meteohub,2013-06-06 22:04:00,
2013-06-06 17:09:00,70.2,63.3,29.88,NNW,338,0.0,2.0,79,0.00,,,0.00,meteohub,2013-06-06 22:09:00,
2013-06-06 17:14:00,70.3,63.5,29.88,WSW,248,0.0,2.0,79,0.00,,,0.00,meteohub,2013-06-06 22:14:00,
2013-06-06 17:19:00,70.2,63.3,29.88,West,270,0.0,0.0,79,0.00,,,0.00,meteohub,2013-06-06 22:19:00,
2013-06-06 17:24:00,70.2,63.3,29.88,West,270,0.0,0.0,79,0.00,,,0.00,meteohub,2013-06-06 22:24:00,
2013-06-06 17:29:00,70.2,63.3,29.88,WSW,248,0.0,0.0,79,0.00,,,0.00,meteohub,2013-06-06 22:29:00,
2013-06-06 17:34:00,70.2,63.7,29.88,ENE,68,0.0,0.0,80,0.00,,,0.00,meteohub,2013-06-06 22:34:00,
2013-06-06 17:39:00,70.2,63.7,29.87,WSW,248,0.0,0.0,80,0.00,,,0.00,meteohub,2013-06-06 22:39:00,
2013-06-06 17:44:00,70.3,63.5,29.87,West,270,0.0,0.0,79,0.00,,,0.00,meteohub,2013-06-06 22:44:00,
2013-06-06 17:49:00,70.3,63.5,29.87,SSE,158,0.0,0.0,79,0.00,,,0.00,meteohub,2013-06-06 22:49:00,
2013-06-06 17:54:00,70.2,63.0,29.87,SSE,158,0.0,2.0,78,0.00,,,0.00,meteohub,2013-06-06 22:54:00,
2013-06-06 18:00:00,70.2,63.0,29.87,SE,135,0.0,2.0,78,0.00,,,0.00,meteohub,2013-06-06 23:00:00,
2013-06-06 18:05:00,69.8,62.6,29.87,ESE,113,0.0,0.0,78,0.00,,,0.00,meteohub,2013-06-06 23:05:00,
2013-06-06 18:10:00,69.8,63.0,29.87,SE,135,0.0,0.0,79,0.00,,,0.00,meteohub,2013-06-06 23:10:00,
2013-06-06 18:15:00,69.6,62.8,29.87,ESE,113,0.0,0.0,79,0.00,,,0.00,meteohub,2013-06-06 23:15:00,
2013-06-06 18:20:00,69.6,62.8,29.86,SE,135,0.0,0.0,79,0.00,,,0.00,meteohub,2013-06-06 23:20:00,
2013-06-06 18:25:00,69.6,62.8,29.86,SW,225,0.0,0.0,79,0.00,,,0.00,meteohub,2013-06-06 23:25:00,
2013-06-06 18:30:00,69.3,62.4,29.86,South,180,0.0,1.0,79,0.00,,,0.00,meteohub,2013-06-06 23:30:00,
2013-06-06 18:35:00,69.1,62.2,29.87,SSE,158,0.0,1.0,79,0.00,,,0.00,meteohub,2013-06-06 23:35:00,
2013-06-06 18:40:00,69.1,62.2,29.87,South,180,0.0,1.0,79,0.00,,,0.00,meteohub,2013-06-06 23:40:00,
2013-06-06 18:45:00,69.3,62.8,29.87,SW,225,0.0,1.0,80,0.00,,,0.00,meteohub,2013-06-06 23:45:00,
2013-06-06 18:50:00,69.3,62.8,29.87,WSW,248,0.0,0.0,80,0.00,,,0.00,meteohub,2013-06-06 23:50:00,
2013-06-06 18:55:00,69.3,62.8,29.87,South,180,0.0,2.0,80,0.00,,,0.00,meteohub,2013-06-06 23:55:00,
2013-06-06 19:00:00,69.4,63.0,29.87,South,180,0.0,2.0,80,0.00,,,0.00,meteohub,2013-06-07 00:00:00,
2013-06-06 19:05:00,69.6,63.1,29.87,ESE,113,0.0,2.0,80,0.00,,,0.00,meteohub,2013-06-07 00:05:00,
2013-06-06 19:10:00,69.4,62.6,29.87,West,270,0.0,0.0,79,0.00,,,0.00,meteohub,2013-06-07 00:10:00,
2013-06-06 19:15:00,69.3,62.4,29.88,SE,135,0.0,0.0,79,0.00,,,0.00,meteohub,2013-06-07 00:15:00,
2013-06-06 19:20:00,69.1,62.2,29.88,South,180,0.0,0.0,79,0.00,,,0.00,meteohub,2013-06-07 00:20:00,
2013-06-06 19:25:00,68.9,62.1,29.88,South,180,0.0,0.0,79,0.00,,,0.00,meteohub,2013-06-07 00:25:00,
2013-06-06 19:30:00,68.7,61.9,29.88,SSE,158,0.0,0.0,79,0.00,,,0.00,meteohub,2013-06-07 00:30:00,
2013-06-06 19:35:00,68.5,61.7,29.88,West,270,0.0,0.0,79,0.00,,,0.00,meteohub,2013-06-07 00:35:00,
2013-06-06 19:40:00,68.5,61.7,29.88,SW,225,0.0,0.0,79,0.00,,,0.00,meteohub,2013-06-07 00:40:00,
2013-06-06 19:45:00,68.2,61.3,29.88,West,270,0.0,0.0,79,0.00,,,0.00,meteohub,2013-06-07 00:45:00,
2013-06-06 19:50:00,68.0,61.5,29.88,West,270,0.0,0.0,80,0.00,,,0.00,meteohub,2013-06-07 00:50:00,
2013-06-06 19:55:00,68.0,61.5,29.88,WSW,248,0.0,0.0,80,0.00,,,0.00,meteohub,2013-06-07 00:55:00,
2013-06-06 20:00:00,68.0,61.5,29.88,West,270,0.0,0.0,80,0.00,,,0.00,meteohub,2013-06-07 01:00:00,
2013-06-06 20:05:00,68.2,61.7,29.88,West,270,0.0,0.0,80,0.00,,,0.00,meteohub,2013-06-07 01:05:00,
2013-06-06 20:10:00,68.2,61.7,29.88,WSW,248,0.0,0.0,80,0.00,,,0.00,meteohub,2013-06-07 01:10:00,
2013-06-06 20:15:00,68.2,62.1,29.89,SW,225,0.0,0.0,81,0.00,,,0.00,meteohub,2013-06-07 01:15:00,
2013-06-06 20:20:00,68.0,61.9,29.89,SW,225,0.0,0.0,81,0.00,,,0.00,meteohub,2013-06-07 01:20:00,
2013-06-06 20:25:00,67.6,61.5,29.89,WSW,248,0.0,0.0,81,0.00,,,0.00,meteohub,2013-06-07 01:25:00,
2013-06-06 20:30:00,67.8,61.7,29.89,SW,225,0.0,0.0,81,0.00,,,0.00,meteohub,2013-06-07 01:30:00,
2013-06-06 20:35:00,67.3,61.2,29.89,WSW,248,0.0,0.0,81,0.00,,,0.00,meteohub,2013-06-07 01:35:00,
2013-06-06 20:40:00,67.1,61.2,29.90,WSW,248,0.0,0.0,81,0.00,,,0.00,meteohub,2013-06-07 01:40:00,
2013-06-06 20:45:00,66.7,61.0,29.90,WSW,248,0.0,0.0,82,0.00,,,0.00,meteohub,2013-06-07 01:45:00,
2013-06-06 20:50:00,66.4,60.8,29.90,WSW,248,0.0,0.0,82,0.00,,,0.00,meteohub,2013-06-07 01:50:00,
2013-06-06 20:55:00,65.8,60.3,29.91,WSW,248,0.0,0.0,82,0.00,,,0.00,meteohub,2013-06-07 01:55:00,
2013-06-06 21:00:00,65.7,60.1,29.91,WSW,248,0.0,0.0,82,0.00,,,0.00,meteohub,2013-06-07 02:00:00,
2013-06-06 21:05:00,65.3,60.1,29.91,WSW,248,0.0,0.0,83,0.00,,,0.00,meteohub,2013-06-07 02:05:00,
2013-06-06 21:10:00,65.1,59.9,29.91,WSW,248,0.0,0.0,83,0.00,,,0.00,meteohub,2013-06-07 02:10:00,
2013-06-06 21:15:00,64.6,59.4,29.90,WSW,248,0.0,0.0,83,0.00,,,0.00,meteohub,2013-06-07 02:15:00,
2013-06-06 21:20:00,64.4,59.2,29.90,West,270,0.0,0.0,83,0.00,,,0.00,meteohub,2013-06-07 02:20:00,
2013-06-06 21:25:00,64.2,59.4,29.90,West,270,0.0,0.0,84,0.00,,,0.00,meteohub,2013-06-07 02:25:00,
2013-06-06 21:30:00,63.9,59.0,29.90,WSW,248,0.0,0.0,84,0.00,,,0.00,meteohub,2013-06-07 02:30:00,
2013-06-06 21:35:00,63.5,58.6,29.92,SW,225,0.0,0.0,84,0.00,,,0.00,meteohub,2013-06-07 02:35:00,
2013-06-06 21:40:00,63.5,58.8,29.92,SW,225,0.0,0.0,85,0.00,,,0.00,meteohub,2013-06-07 02:40:00,
2013-06-06 21:45:00,63.1,58.6,29.92,SW,225,0.0,0.0,85,0.00,,,0.00,meteohub,2013-06-07 02:45:00,
2013-06-06 21:50:00,63.0,58.5,29.92,SW,225,0.0,0.0,85,0.00,,,0.00,meteohub,2013-06-07 02:50:00,
2013-06-06 21:55:00,62.8,58.5,29.93,SW,225,0.0,0.0,86,0.00,,,0.00,meteohub,2013-06-07 02:55:00,
2013-06-06 22:01:00,62.8,58.5,29.93,SW,225,0.0,0.0,86,0.00,,,0.00,meteohub,2013-06-07 03:01:00,
2013-06-06 22:06:00,62.4,58.1,29.93,SW,225,0.0,0.0,86,0.00,,,0.00,meteohub,2013-06-07 03:06:00,
2013-06-06 22:11:00,62.2,57.9,29.93,SW,225,0.0,0.0,86,0.00,,,0.00,meteohub,2013-06-07 03:11:00,
2013-06-06 22:16:00,62.1,57.7,29.94,SW,225,0.0,0.0,86,0.00,,,0.00,meteohub,2013-06-07 03:16:00,
2013-06-06 22:21:00,62.1,57.7,29.94,SW,225,0.0,0.0,86,0.00,,,0.00,meteohub,2013-06-07 03:21:00,
2013-06-06 22:26:00,61.5,57.4,29.94,SW,225,0.0,0.0,86,0.00,,,0.00,meteohub,2013-06-07 03:26:00,
2013-06-06 22:31:00,61.3,57.2,29.94,SW,225,0.0,0.0,86,0.00,,,0.00,meteohub,2013-06-07 03:31:00,
2013-06-06 22:36:00,61.2,57.2,29.94,SW,225,0.0,0.0,87,0.00,,,0.00,meteohub,2013-06-07 03:36:00,
2013-06-06 22:41:00,60.8,56.8,29.94,SW,225,0.0,0.0,87,0.00,,,0.00,meteohub,2013-06-07 03:41:00,
2013-06-06 22:46:00,60.6,56.7,29.94,SW,225,0.0,0.0,87,0.00,,,0.00,meteohub,2013-06-07 03:46:00,
2013-06-06 22:51:00,60.6,56.7,29.94,SW,225,0.0,0.0,87,0.00,,,0.00,meteohub,2013-06-07 03:51:00,
2013-06-06 22:56:00,60.3,56.7,29.94,West,270,0.0,0.0,88,0.00,,,0.00,meteohub,2013-06-07 03:56:00,
2013-06-06 23:01:00,60.3,56.7,29.94,WSW,248,0.0,0.0,88,0.00,,,0.00,meteohub,2013-06-07 04:01:00,
2013-06-06 23:02:00,60.1,56.5,29.94,WSW,248,0.0,0.0,88,0.00,,,0.00,meteohub,2013-06-07 04:02:00,
2013-06-06 23:07:00,59.7,55.8,29.95,WSW,248,0.0,0.0,87,0.00,,,0.00,meteohub,2013-06-07 04:07:00,
2013-06-06 23:12:00,59.7,55.8,29.95,WSW,248,0.0,0.0,87,0.00,,,0.00,meteohub,2013-06-07 04:12:00,
2013-06-06 23:17:00,59.5,55.9,29.94,WSW,248,0.0,0.0,88,0.00,,,0.00,meteohub,2013-06-07 04:17:00,
2013-06-06 23:22:00,59.2,55.6,29.94,WSW,248,0.0,0.0,88,0.00,,,0.00,meteohub,2013-06-07 04:22:00,
2013-06-06 23:27:00,59.0,55.4,29.94,WSW,248,0.0,0.0,88,0.00,,,0.00,meteohub,2013-06-07 04:27:00,
2013-06-06 23:32:00,58.8,55.2,29.94,WSW,248,0.0,0.0,88,0.00,,,0.00,meteohub,2013-06-07 04:32:00,
2013-06-06 23:37:00,58.6,55.0,29.94,WSW,248,0.0,0.0,88,0.00,,,0.00,meteohub,2013-06-07 04:37:00,
2013-06-06 23:42:00,58.6,55.0,29.94,WSW,248,0.0,0.0,88,0.00,,,0.00,meteohub,2013-06-07 04:42:00,
2013-06-06 23:47:00,58.5,55.2,29.94,WSW,248,0.0,0.0,89,0.00,,,0.00,meteohub,2013-06-07 04:47:00,
2013-06-06 23:52:00,58.5,55.2,29.94,WSW,248,0.0,0.0,89,0.00,,,0.00,meteohub,2013-06-07 04:52:00,
2013-06-06 23:57:00,58.1,54.9,29.95,WSW,248,0.0,0.0,89,0.00,,,0.00,meteohub,2013-06-07 04:57:00,